Regional Weather Roundup
Issued by NWS

Home | Current Version | Previous Version | Text Only | Print | Product List | Glossary Off
Versions: 1 2 3 4 5 6 7 8 9 10 11 12 13 14 15 16 17 18 19 20 21 22 23 24 25 26 27 28 29 30 31 32 33 34 35 36 37 38 39 40 41 42 43 44 45 46 47 48 49 50

000
ASUS43 KMKX 181421
RWRWI

WISCONSIN REGIONAL WEATHER ROUNDUP
NATIONAL WEATHER SERVICE MILWAUKEE/SULLIVAN WI
900 AM CDT FRI AUG 18 2017

NOTE: "FAIR" INDICATES FEW OR NO CLOUDS BELOW 12,000 FEET WITH NO
SIGNIFICANT WEATHER AND/OR OBSTRUCTIONS TO VISIBILITY.

WIZ001-002-006>008-014>016-023>028-181500-
NORTHWEST WISCONSIN

CITY           SKY/WX    TMP DP  RH WIND       PRES   REMARKS
SUPERIOR ARPT    N/A     60  58  91 S3        29.84S
ASHLAND        CLOUDY    63  59  87 SW8       29.84R
HAYWARD        CLOUDY    62  56  80 CALM      29.87R
SIREN          PTSUNNY   60  58  94 CALM      29.87F
CUMBERLAND     CLOUDY    63  59  88 N8        29.86F
RICE LAKE      CLOUDY    65  59  80 NW6       29.88S
CHETEK         CLOUDY    65  60  83 NW7       29.87S
LADYSMITH      MOSUNNY   63  58  84 NW8       29.88R
EAU CLAIRE     SUNNY     65  59  81 VRB5      29.85F
MENOMONIE      MOSUNNY   65  60  82 W5        29.86F
NEW RICHMOND   CLOUDY    64  60  88 W3        29.88R
OSCEOLA        CLOUDY    62  62 100 CALM      29.91R
$$

WIZ003>005-009-010-017-018-181500-
NORTH CENTRAL WISCONSIN

CITY           SKY/WX    TMP DP  RH WIND       PRES   REMARKS
MANITOWISH WTR CLOUDY    60  60 100 NW6       29.81S
ARBOR VITAE    CLOUDY    62  60  93 NW9       29.81S
WOODRUFF       CLOUDY    62  60  93 NW9       29.81S
RHINELANDER    LGT RAIN  60  59  96 NW8       29.81R
EAGLE RIVER    CLOUDY    60  58  94 NW9       29.79S
LAND O LAKES   CLOUDY    60  57  91 NW8       29.80F
PHILLIPS       CLOUDY    60  59  96 NW7       29.84R
TOMAHAWK         N/A     60  57  91 W6        29.83R
MEDFORD        CLOUDY    61  57  87 NW10      29.84R
MERRILL        PTSUNNY   63  59  88 NW9       29.83R
$$

WIZ029-030-035-036-043>047-181500-
CENTRAL WISCONSIN

CITY           SKY/WX    TMP DP  RH WIND       PRES   REMARKS
WAUSAU         CLOUDY    62  59  90 NW10      29.81R
MOSINEE        CLOUDY    63  59  88 NW10G16   29.84R
MARSHFIELD     PTSUNNY   64  57  78 NW14G23   29.84R
STEVENS POINT  CLOUDY    62  58  88 W5        29.83R
WAUPACA        CLOUDY    67  59  74 W9G16     29.81R
WAUTOMA        CLOUDY    65  58  78 W13G20    29.84R
WISC RAPIDS    PTSUNNY   66  58  75 NW13      29.85R
CAMP DOUGLAS   MOSUNNY   64  59  82 NW10      29.86S
$$

WIZ011>013-019>022-031-037>040-048>050-181500-
NORTHEAST WISCONSIN

CITY           SKY/WX    TMP DP  RH WIND       PRES   REMARKS
ANTIGO         CLOUDY    60  57  89 NW12      29.81R
SHAWANO        CLOUDY    67  59  75 NW8       29.77R
OCONTO         CLOUDY    67  59  74 NW9       29.73R
STURGEON BAY   CLOUDY    66  59  78 NW16G22   29.72R
GREEN BAY      PTSUNNY   68  62  81 W15G24    29.76R
MANITOWOC      PTSUNNY   68  58  70 W14G22    29.77R
APPLETON       PTSUNNY   64  55  72 W16       29.79R
CLINTONVILLE   CLOUDY    64  55  72 NW13      29.79R
OSHKOSH        CLOUDY    65  59  81 W13       29.80R
$$

WIZ032>034-041-042-053>061-181500-
SOUTHWEST WISCONSIN

CITY           SKY/WX    TMP DP  RH WIND       PRES   REMARKS
LA CROSSE      SUNNY     71  60  68 NW8       29.87F
SPARTA         SUNNY     65  58  77 NW8       29.88R
VIROQUA        SUNNY     66  61  85 NW7       29.89F
BOSCOBEL       MOSUNNY   69  60  73 VRB3      29.88S
PRAIRIE DU CHI CLOUDY    66  57  72 NW7       29.89S
PLATTEVILLE    MOSUNNY   65  64  94 NW7       29.90S
$$

WIZ056-057-062-063-064-067-068-181500-
SOUTH CENTRAL WISCONSIN

CITY           SKY/WX    TMP DP  RH WIND       PRES   REMARKS
REEDSBURG      PTSUNNY   67  60  78 NW9       29.87S
BARABOO/DELLS  CLOUDY    65  56  72 NW12G17   29.87R
LONE ROCK      MOSUNNY   69  62  78 NW10      29.87R
MINERAL POINT  MOSUNNY   68  64  88 NW10      29.89S
MADISON        PTSUNNY   66  58  75 NW14G23   29.86R
MIDDLETON      CLOUDY    68  60  76 NW13G20   29.87S
WATERTOWN      CLOUDY    66  60  82 W14G20    29.84S
MONROE         PTSUNNY   66  61  82 W14       29.88R
JANESVILLE     PTSUNNY   70  63  78 NW12      29.85R
$$

WIZ051-052-058>065-066-070>072-181500-
SOUTHEAST WISCONSIN

CITY           SKY/WX    TMP DP  RH WIND       PRES   REMARKS
MILWAUKEE      CLOUDY    69  59  70 W12       29.82R
WAUKESHA       CLOUDY    64  57  77 NW12G17   29.85R
MILWAUKEE/TIMM CLOUDY    66  55  68 W9        29.83R
RACINE         CLOUDY    68  61  78 NW8       29.85R
KENOSHA        CLOUDY    68  60  75 NW10      29.84R
FOND DU LAC    CLOUDY    66  58  75 W12       29.81R
SHEBOYGAN      CLOUDY    66  61  84 NW13G18   29.79R
WEST BEND      CLOUDY    64  59  82 W12       29.83R
JUNEAU         CLOUDY    64  58  81 W6        29.85R
$$

LSZ147-162-181500-
LAKE SUPERIOR

STATION/POSITION TIME  TEMP    WIND        PRES    WAVE
                       AIR SEA DIR/SP/G            HT/PER
                 (UTC) (F)     (DEG/KT/KT) (MB)    (FT/S)
W MID LAKE BUOY  1350   61 60  300/ 10/ 12 1007.9R   2/ 6
DEVILS ISLAND    1400   62     320/ 11/ 11 1009.6R
SAXON HARBOR     1330   63     280/  4/  7 1009.1S
$$

LMZ867-665-643>646-181500-
LAKE MICHIGAN

STATION/POSITION TIME  TEMP    WIND        PRES    WAVE
                       AIR SEA DIR/SP/G            HT/PER
                 (UTC) (F)     (DEG/KT/KT) (MB)    (FT/S)
S GREEN BAY BUOY 1400   67 71  300/ 14/ 19 1006.8
N MID LAKE BUOY  1350   64 67  310/ 19/ 21 1004.3R   4/ 5
NORTHPORT PIER   1340   66     310/ 14/ 19 1005.1R
KEWAUNEE LAKESHO 1354   68     290/ 11/ 15 1005.9R
SHEBOYGAN LAKESH 1400   67     280/  9/ 11 1008.3R
PORT WASHINGTON  1340   68     290/  9/ 15 1010.5R
ATWATER BUOY     1339   68 70  290/ 12/ 16 1010.0R
MILWAUKEE LAKESH 1400   68     290/  8/ 11   N/A
S MID LAKE BUOY  1350   69 71  320/ 16/ 19 1009.1R   4/ 5
KENOSHA   LAKESH 1400   68     300/ 15/ 19 1009.8
$$

TC  - TEMPERATURE IN CELSIUS
VSB - VISIBILITY IN STATUTE MILES
WCI - WIND CHILL INDEX
HX  - HEAT INDEX





USA.gov is the U.S. government's official web portal to all federal, state and local government web resources and services.